[[{"header":{"parameterUnit":"m.s-1","parameterCategory":1,"la1":30.2991,"la2":30.254,"lo1":-89.0895,"lo2":-89.0444,"dy":0.0017,"dx":0.0017,"nx":28,"ny":28,"refTime":"2025-11-19T03:00:00:Z","depth":0,"parameterNumber":2,"parameterNumberName":"U-component_of_WINDS"},"data":[0,0,0,0,0,0,0,0,0,0,0,0,0,0,0,0,0,0,0,0,0,0,0,0,0,0,0,0,0,0,0,0,0,0,0,0,0,0,0,0,0,0,0,0,0,0,0,0,0,0,0,0,0,0,0,0,0,0,-1.3477,-1.3477,0,-1.3454,-1.3454,-1.3454,-1.3391,-1.3389,-1.3388,-1.3387,-1.3366,-1.3367,-1.3368,0,0,0,0,0,0,0,0,0,0,0,0,0,-1.3469,-1.347,-1.3477,-1.3477,-1.3477,-1.3454,-1.3454,-1.3454,-1.3391,-1.3389,-1.3388,-1.3386,-1.3366,-1.3367,-1.3368,0,0,0,0,0,0,0,0,0,0,0,0,0,-1.3463,-1.347,-1.3477,-1.3443,-1.3439,-1.3454,-1.3454,-1.3454,-1.3391,-1.3389,-1.3387,-1.3385,-1.3366,-1.3367,-1.3368,-1.3416,0,0,-1.3371,-1.3372,0,0,0,0,0,0,0,0,-1.3463,-1.3463,-1.3448,-1.3445,-1.3441,-1.3423,-1.3444,-1.3441,-1.3392,-1.341,-1.3387,-1.3384,-1.3387,-1.3386,-1.3387,-1.3415,-1.3414,-1.3371,-1.3372,-1.3372,-1.3373,0,0,0,0,0,0,0,-1.3464,-1.3463,-1.3468,-1.3448,-1.3444,-1.3429,-1.3426,-1.3443,-1.341,-1.3408,-1.3403,-1.3401,-1.3385,-1.3386,-1.3386,-1.3414,-1.3371,-1.3372,-1.3373,-1.3373,-1.348,-1.3482,0,0,0,0,0,0,-1.3469,-1.3464,-1.3469,-1.3467,-1.3447,-1.3431,-1.3427,-1.3431,-1.341,-1.3405,-1.3403,-1.3398,-1.3385,-1.3384,-1.3385,-1.3439,-1.3372,-1.3374,-1.3374,-1.3478,-1.3481,-1.3483,0,0,0,0,0,0,-1.3469,-1.347,-1.347,-1.3465,-1.3463,-1.3433,-1.3438,-1.3432,-1.3432,-1.3406,-1.34,-1.341,-1.3383,-1.3383,-1.3408,-1.3438,-1.3374,-1.3375,-1.3476,-1.3479,-1.3482,-1.3549,0,0,0,0,0,0,-1.3469,-1.347,-1.3487,-1.3465,-1.3464,-1.3493,-1.344,-1.3433,-1.3434,-1.3428,-1.3411,-1.3406,-1.3382,-1.3407,-1.3409,-1.3438,-1.3376,-1.3473,-1.3477,-1.3481,-1.3544,-1.3554,-1.3563,0,0,0,0,0,-1.3469,-1.3508,-1.3488,-1.3489,-1.3485,-1.3495,-1.3494,-1.3464,-1.3437,-1.3454,-1.3437,-1.3407,-1.3434,-1.341,-1.3412,-1.3442,-1.3471,-1.3476,-1.3481,-1.354,-1.3552,-1.3563,0,0,0,0,0,0,-1.3534,-1.3504,-1.3482,-1.3515,-1.3508,-1.3484,-1.3505,-1.3478,-1.348,-1.3474,-1.3438,-1.3435,-1.3465,-1.3456,-1.343,-1.3487,-1.3447,-1.3453,-1.3492,-1.3503,-1.3513,-1.3514,-1.3377,0,0,0,0,0,-1.3552,-1.3562,-1.3536,-1.3567,-1.3565,-1.3536,-1.3539,-1.3517,-1.3508,-1.3505,-1.349,-1.3484,-1.3491,-1.3497,-1.3502,-1.3543,-1.3538,-1.3564,-1.3573,-1.3581,-1.3586,-1.3608,-1.3619,-1.3499,-1.3499,-1.3499,0,0,-1.359,-1.3575,-1.3584,-1.358,-1.3572,-1.3584,-1.3534,-1.3548,-1.3557,-1.3508,-1.353,-1.3519,-1.351,-1.3543,-1.3557,-1.3537,-1.3619,-1.3587,-1.3594,-1.3595,-1.3614,-1.3625,-1.3635,-1.3503,-1.3502,-1.3501,0,0,-1.3665,-1.3655,-1.368,-1.3672,-1.366,-1.3641,-1.3647,-1.3627,-1.3618,-1.364,-1.3603,-1.3614,-1.3627,-1.3622,-1.3621,-1.3695,-1.3666,-1.3697,-1.3747,-1.3768,-1.3777,-1.3785,-1.3812,-1.3822,-1.3703,-1.3703,-1.3703,0,-1.3714,-1.373,-1.3696,-1.3713,-1.3713,-1.3668,-1.3694,-1.3689,-1.368,-1.3681,-1.3658,-1.3674,-1.3664,-1.3696,-1.3714,-1.3714,-1.3721,-1.3699,-1.3778,-1.3786,-1.3793,-1.3818,-1.3828,-1.3707,-1.3706,-1.3706,-1.3706,0,-1.3791,-1.3802,-1.3824,-1.3815,-1.3818,-1.3839,-1.381,-1.3816,-1.3794,-1.3778,-1.3801,-1.3788,-1.379,-1.3796,-1.3775,-1.3825,-1.3812,-1.3784,-1.3744,-1.3809,-1.3832,-1.3841,-1.3712,-1.3711,-1.371,-1.3709,0,0,-1.3906,-1.3878,-1.3887,-1.3883,-1.3866,-1.3875,-1.3895,-1.3896,-1.3902,-1.3898,-1.3914,-1.3926,-1.39,-1.3899,-1.3877,-1.3896,-1.3955,-1.3866,-1.3865,-1.3883,-1.401,-1.4031,-1.4043,-1.3937,-1.3938,-1.394,-1.4011,0,-1.3977,-1.4008,-1.3979,-1.4016,-1.4026,-1.3984,-1.4001,-1.3994,-1.3979,-1.3987,-1.3971,-1.398,-1.3945,-1.3944,-1.3961,-1.3945,-1.3981,-1.3939,-1.3952,-1.3953,-1.3956,-1.4055,-1.4077,-1.4144,-1.402,-1.4021,-1.4022,0,-1.4063,-1.4062,-1.41,-1.4081,-1.4085,-1.4101,-1.4099,-1.4107,-1.4098,-1.4086,-1.4085,-1.4058,-1.4077,-1.4038,-1.4064,-1.4036,-1.404,-1.4033,-1.4035,-1.4035,-1.3992,-1.4057,-1.4165,-1.4176,-1.4036,-1.4035,-1.4034,0,-1.4144,-1.4152,-1.4175,-1.4173,-1.4152,-1.4164,-1.4156,-1.4145,-1.4147,-1.4147,-1.4148,-1.415,-1.4151,-1.4154,-1.4128,-1.4102,-1.4158,-1.4117,-1.415,-1.415,-1.4163,-1.4163,-1.4273,-1.4166,-1.4166,-1.4166,-1.4165,0,-1.4226,-1.4251,-1.4211,-1.4226,-1.4253,-1.422,-1.4248,-1.4235,-1.4226,-1.4238,-1.4202,-1.4215,-1.418,-1.4189,-1.417,-1.4195,-1.4196,-1.4187,-1.4182,-1.419,-1.4191,-1.4192,-1.4187,-1.4168,-1.4168,-1.4167,-1.4167,0,-1.432,-1.4294,-1.4318,-1.4295,-1.4291,-1.4312,-1.4293,-1.4306,-1.4289,-1.4305,-1.4307,-1.4281,-1.429,-1.4265,-1.427,-1.4257,-1.4293,-1.428,-1.4296,-1.4292,-1.4326,-1.4323,-1.4441,-1.4455,-1.4339,-1.434,-1.4341,0,-1.4374,-1.4392,-1.4372,-1.4377,-1.4371,-1.438,-1.4382,-1.435,-1.4354,-1.4346,-1.436,-1.4366,-1.4369,-1.4386,-1.4367,-1.4372,-1.4358,-1.4399,-1.4359,-1.4367,-1.4359,-1.4358,-1.436,-1.4408,-1.4409,-1.441,-1.4411,0,-1.4473,-1.4459,-1.4463,-1.4463,-1.4467,-1.4465,-1.4461,-1.4468,-1.4434,-1.4441,-1.4449,-1.4451,-1.4456,-1.4463,-1.4463,-1.4456,-1.4429,-1.4424,-1.4432,-1.4441,-1.445,-1.4446,-1.4319,-1.4422,-1.4421,-1.442,-1.4419,-1.4419,-1.4549,-1.4563,-1.4551,-1.4557,-1.455,-1.4548,-1.4559,-1.4543,-1.4549,-1.455,-1.4531,-1.4544,-1.4535,-1.4532,-1.4528,-1.4538,-1.4519,-1.453,-1.4533,-1.4536,-1.4542,-1.4448,-1.4538,-1.4537,-1.4537,-1.4537,-1.4536,0,-1.4645,-1.4635,-1.4641,-1.4637,-1.4642,-1.4614,-1.4609,-1.4615,-1.4626,-1.462,-1.4623,-1.4633,-1.4639,-1.4622,-1.4626,-1.4637,-1.4625,-1.4639,-1.4638,-1.4637,-1.4559,-1.4551,-1.4649,-1.4649,-1.4649,-1.4649,-1.4649,-1.4649,-1.4696,-1.4719,-1.4704,-1.4723,-1.4713,-1.4724,-1.4724,-1.4722,-1.4716,-1.4728,-1.4733,-1.4721,-1.4711,-1.4714,-1.4719,-1.4713,-1.4717,-1.4736,-1.4726,-1.4653,-1.4642,-1.4632,-1.4625,-1.4736,-1.4737,-1.4803,-1.4804,-1.4805]},{"header":{"parameterUnit":"m.s-1","parameterCategory":1,"la1":30.2991,"la2":30.254,"lo1":-89.0895,"lo2":-89.0444,"dy":0.0017,"dx":0.0017,"nx":28,"ny":28,"refTime":"2025-11-19T03:00:00:Z","depth":0,"parameterNumber":3,"parameterNumberName":"V-component_of_WINDS"},"data":[0,0,0,0,0,0,0,0,0,0,0,0,0,0,0,0,0,0,0,0,0,0,0,0,0,0,0,0,0,0,0,0,0,0,0,0,0,0,0,0,0,0,0,0,0,0,0,0,0,0,0,0,0,0,0,0,0,0,0.1435,0.1435,0,0.1455,0.1455,0.1456,0.1501,0.1502,0.1503,0.1504,0.1524,0.1524,0.1523,0,0,0,0,0,0,0,0,0,0,0,0,0,0.1436,0.1435,0.1435,0.1435,0.1435,0.1455,0.1455,0.1456,0.1501,0.1502,0.1504,0.1505,0.1524,0.1524,0.1523,0,0,0,0,0,0,0,0,0,0,0,0,0,0.1443,0.1435,0.1435,0.1461,0.1463,0.1455,0.1455,0.1456,0.1501,0.1502,0.1504,0.1505,0.1524,0.1524,0.1523,0.1492,0,0,0.1522,0.1521,0,0,0,0,0,0,0,0,0.1443,0.1443,0.1457,0.1459,0.1462,0.1477,0.1463,0.1468,0.1501,0.1487,0.1504,0.1506,0.1507,0.1508,0.1509,0.1492,0.1493,0.1522,0.1521,0.1521,0.1521,0,0,0,0,0,0,0,0.1442,0.1443,0.1443,0.1457,0.146,0.1471,0.1474,0.1464,0.1489,0.1488,0.1491,0.1493,0.1509,0.1509,0.151,0.1494,0.1522,0.1521,0.1521,0.1521,0.1453,0.1452,0,0,0,0,0,0,0.1438,0.1442,0.1442,0.1444,0.1456,0.147,0.1473,0.1471,0.1489,0.1493,0.1492,0.1495,0.1509,0.151,0.1511,0.1475,0.1521,0.152,0.152,0.1455,0.1453,0.1451,0,0,0,0,0,0,0.1438,0.1438,0.1442,0.1444,0.1445,0.1468,0.1466,0.147,0.1471,0.1492,0.1497,0.1488,0.1511,0.1511,0.1496,0.1477,0.152,0.152,0.1456,0.1454,0.1452,0.1404,0,0,0,0,0,0,0.1438,0.1437,0.1426,0.1443,0.1445,0.1427,0.1464,0.147,0.147,0.1474,0.1489,0.1493,0.1512,0.1497,0.1496,0.1477,0.1519,0.1458,0.1455,0.1453,0.1408,0.1401,0.1395,0,0,0,0,0,0.1438,0.1411,0.1425,0.1425,0.1431,0.1426,0.1426,0.1449,0.1468,0.1457,0.147,0.1493,0.1479,0.1495,0.1494,0.1474,0.146,0.1456,0.1453,0.141,0.1402,0.1395,0,0,0,0,0,0,0.139,0.1414,0.1429,0.1407,0.1414,0.1433,0.1419,0.1439,0.144,0.1444,0.1472,0.1474,0.1456,0.1464,0.1481,0.1445,0.1473,0.1469,0.1441,0.1433,0.1426,0.1425,0.1519,0,0,0,0,0,0.1377,0.1371,0.1392,0.1371,0.1373,0.1396,0.1394,0.1411,0.1419,0.1422,0.1434,0.1441,0.1439,0.1436,0.1435,0.1409,0.1413,0.1395,0.1389,0.1383,0.138,0.1367,0.136,0.1441,0.1441,0.1441,0,0,0.135,0.1362,0.1357,0.1361,0.1369,0.1362,0.1398,0.1389,0.1384,0.142,0.1407,0.1417,0.1426,0.1406,0.1397,0.1412,0.1358,0.1379,0.1374,0.1374,0.1363,0.1356,0.1349,0.1438,0.1439,0.1439,0,0,0.1297,0.1306,0.1289,0.1296,0.1307,0.1322,0.1318,0.1334,0.1342,0.1329,0.1356,0.1351,0.1346,0.1352,0.1354,0.1304,0.1325,0.1303,0.1269,0.1257,0.125,0.1245,0.1227,0.1221,0.13,0.1299,0.1299,0,0.1262,0.1253,0.1278,0.1268,0.1269,0.1302,0.1286,0.1291,0.1301,0.1301,0.1317,0.1312,0.132,0.1302,0.129,0.129,0.1287,0.1301,0.1249,0.1244,0.1239,0.1223,0.1216,0.1297,0.1297,0.1297,0.1298,0,0.121,0.1203,0.1189,0.1198,0.1198,0.1184,0.1207,0.1204,0.1221,0.1234,0.1221,0.1233,0.1235,0.1232,0.1248,0.1216,0.1224,0.1244,0.1273,0.1228,0.1214,0.1208,0.1293,0.1294,0.1295,0.1295,0,0,0.1127,0.1151,0.1145,0.115,0.1164,0.116,0.1148,0.1151,0.1148,0.1153,0.1144,0.1139,0.1158,0.1161,0.1178,0.1167,0.1127,0.1188,0.1189,0.1177,0.1094,0.1079,0.1071,0.1141,0.114,0.1139,0.1093,0,0.1078,0.106,0.1082,0.1059,0.1054,0.1085,0.1075,0.1083,0.1096,0.1093,0.1107,0.1103,0.1128,0.113,0.112,0.1134,0.1111,0.1138,0.1133,0.1133,0.113,0.1063,0.1047,0.1003,0.1087,0.1086,0.1086,0,0.1018,0.1022,0.0998,0.1015,0.1014,0.1004,0.1009,0.1006,0.1015,0.1025,0.1028,0.1049,0.1039,0.1066,0.1053,0.1071,0.107,0.1077,0.1076,0.1076,0.1107,0.1062,0.0989,0.0983,0.1077,0.1077,0.1078,0,0.0961,0.096,0.0946,0.0949,0.0968,0.0961,0.0968,0.098,0.098,0.0984,0.0984,0.0986,0.0987,0.0989,0.101,0.1028,0.0994,0.1023,0.1002,0.1001,0.0993,0.0994,0.092,0.0993,0.0993,0.0993,0.0993,0,0.0904,0.0888,0.092,0.0912,0.0895,0.0921,0.0904,0.0915,0.0925,0.0919,0.0947,0.094,0.0968,0.0965,0.0981,0.0968,0.0968,0.0976,0.0981,0.0974,0.0973,0.0974,0.0978,0.0991,0.0991,0.0992,0.0992,0,0.0837,0.0858,0.0845,0.0864,0.0869,0.0856,0.0873,0.0866,0.088,0.0872,0.0872,0.0895,0.0892,0.0914,0.0915,0.0926,0.0905,0.0915,0.0902,0.0905,0.0883,0.0885,0.0808,0.0799,0.0877,0.0876,0.0875,0,0.0799,0.0788,0.0807,0.0805,0.0812,0.0808,0.0809,0.0834,0.0834,0.0845,0.0836,0.0836,0.0838,0.0833,0.0849,0.0851,0.0861,0.0834,0.0862,0.0855,0.0861,0.0862,0.0861,0.0828,0.0827,0.0826,0.0826,0,0.0731,0.0742,0.0742,0.0746,0.0746,0.075,0.0756,0.0752,0.078,0.0778,0.0777,0.0778,0.078,0.078,0.0785,0.0793,0.0814,0.0817,0.0812,0.0805,0.0798,0.0802,0.0887,0.0819,0.0819,0.082,0.082,0.0821,0.0678,0.067,0.0682,0.0681,0.0688,0.0693,0.0688,0.0702,0.0701,0.0705,0.072,0.0716,0.0727,0.0736,0.0742,0.0739,0.0752,0.0745,0.0743,0.0741,0.0738,0.0799,0.074,0.074,0.074,0.074,0.0741,0,0.0611,0.0621,0.062,0.0627,0.0627,0.0647,0.0655,0.0653,0.0649,0.0658,0.0659,0.0657,0.0658,0.0674,0.0677,0.0671,0.0681,0.0671,0.0672,0.0673,0.0725,0.0729,0.0663,0.0663,0.0663,0.0663,0.0663,0.0663,0.0576,0.0564,0.0576,0.0568,0.0578,0.0574,0.0577,0.0582,0.0589,0.0586,0.0587,0.0598,0.061,0.0613,0.0614,0.0619,0.0619,0.0606,0.0614,0.0662,0.067,0.0677,0.0681,0.0605,0.0605,0.0562,0.0562,0.0562]}]]